sat.trackr.live / text

‹ back to catalog

STARLINK-4470

NORAD 53655 · 2022-105H

PAYLOAD ACTIVE UNKNOWN

§ Identity

Operator
Country
US
Launch date
2022-08-31
Launch site
AFWTR
Launch vehicle
Mass (kg)
RCS (m²)

Purposes: comms

External: N2YO · Heavens-Above · Gunter

§ Orbital elements

Epoch: 2026-09-20T22:04:31.279872Z

Period
93.69 min
Inclination
97.4891°
Eccentricity
0.0001353
Mean motion
15.36979759 rev/d
Perigee alt
454.1 km
Apogee alt
456.0 km
Semi-major
6,833.2 km
B*
-5.8922e-5
RAAN
152.3682°
Arg perigee
88.9915°
Mean anomaly
271.1484°
Rev number
22,326

§ Raw data

STARLINK-44701 53655U 22105H   26263.91980648 -.00002210  00000+0 -58922-4 0  99942 53655  97.4891 152.3682 0001353  88.9915 271.1484 15.36979759223266

JSON: /api/v1/satellites/53655 · /tle

For live sub-satellite position, see the globe view (requires WebGL).

§ Visibility from observer

Set your observer location to see the next 7 days of passes ≥ 10°. The values pass through the URL so the page stays shareable.

No JS? Fill the form by hand. The geolocation button needs JavaScript.